Flag for U.S.A. Weather past 2 weeks in Tallahassee, Florida, U.S.A.

Now
51 °F

Sunny.


Feels Like: 47 °F
Forecast: 40 / 70 °F
Wind: 10 mph from Northeast

Location: Tallahassee Regional Airport


UV Index: 7 (High)

Visibility: 10 mi


Pressure: 30.19 "Hg

Humidity: 50%

Dew point: 33 °F

Location of TallahasseeLocation

Historic Weather in Tallahassee

°F

Tallahassee temperature yesterday

Maximum temperature yesterday: 75 °F (at 3:53 AM)
Minimum temperature yesterday: 50 °F (at 9:53 PM)
Average temperature yesterday: 63 °F

Past Weeks' High & Low Weather Summary

 TemperatureHumidityPressure
High85 °F (Apr 4, 3:53 PM)94% (Apr 3, 7:58 AM)30.30 "Hg (Apr 3, 7:58 AM)
Low43 °F (Apr 10, 6:53 AM)14% (Apr 1, 2:53 PM)29.73 "Hg (Apr 7, 3:53 PM)
Average67 °F67%30.03 "Hg
* Reported Apr 1 9:53 AM — Apr 16 9:53 AM, Tallahassee, Weather by CustomWeather, © 2014

Note: Actual official high and low records may vary slightly from our data, if they occured in-between our weather recording intervals... More about our weather records

Advertising

Historic Weather Conditions — Data for Previous 24 hours

 ConditionsComfort  
Time TempWeatherWind HumidityBarometerVisibility
9:53 AM
Apr 16
51 °FSunny.10 mph50%30.19 "Hg10 mi
8:53 AM47 °FSunny.10 mph54%30.18 "Hg10 mi
7:53 AM44 °FPassing clouds.8 mph60%30.17 "Hg10 mi
6:53 AM43 °FPassing clouds.7 mph62%30.15 "Hg10 mi
5:53 AM44 °FClear.7 mph60%30.14 "Hg10 mi
4:53 AM45 °FClear.12 mph58%30.14 "Hg10 mi
3:53 AM46 °FClear.7 mph56%30.13 "Hg10 mi
2:53 AM47 °FClear.9 mph59%30.11 "Hg10 mi
1:53 AM47 °FClear.12 mph61%30.10 "Hg10 mi
12:53 AM48 °FClear.10 mph66%30.09 "Hg10 mi
11:53 PM
Apr 15
50 °FClear.10 mph63%30.08 "Hg10 mi
10:53 PM50 °FPassing clouds.12 mph68%30.06 "Hg10 mi
9:53 PM50 °FPassing clouds.7 mph71%30.05 "Hg10 mi
8:53 PM51 °FScattered clouds.8 mph69%30.02 "Hg10 mi
7:53 PM54 °FPartly sunny.13 mph62%29.96 "Hg10 mi
6:53 PM55 °FOvercast.17 mph62%29.95 "Hg10 mi
5:53 PM57 °FOvercast.20 mph62%29.93 "Hg10 mi
4:53 PM60 °FOvercast.20 mph62%29.90 "Hg10 mi
3:53 PM60 °FMostly cloudy.20 mph67%29.89 "Hg10 mi
2:53 PM61 °FLow clouds.15 mph70%29.88 "Hg10 mi
1:53 PM61 °FLow clouds.15 mph78%29.85 "Hg10 mi
12:53 PM62 °FFog.21 mph86%29.84 "Hg2 mi
12:01 PM72 °FHeavy rain. Cloudy.12 mph83%29.81 "Hg2 mi
10:53 AM71 °FRain. Fog.5 mph90%29.78 "Hg4 mi
Weather by CustomWeather, © 2014

See weather overview